Content
SEND FEEDBACK

Daily
Averages
Monthly
Summary
United States of America

WILMINGTON, NORTH CAROLINA


Home > North America > United States > North Carolina
Elevation: 72 feet     Latitude: 34 16N     Longitude: 077 54W

WEATHER
 
SELECT A DAY
Number of Records: 213,275;   Date Range: 1/1/95 - 11/24/14
 
SHARE

PRINT THIS DATA

[ ← Previous Day ]
WEATHER ALMANAC - FEBRUARY 9, 2013
[ Next Day → ]
[ °C ]   °F
Weather ElementAverageHighLow
Temperature44.5 °F55.9 °F (2:53 pm)33.1 °F (11:53 pm)
Dewpoint27.6 °F32 °F (1:53 am)21.9 °F (2:53 pm)
Humidity54.9 %85 % (11:53 pm)27 % (2:53 pm)
Barometer30.23 in30.37 in (11:53 pm)30.06 in (1:53 am)
Wind Speed8.1 mph16.1 mph (9:53 am)
Wind Gust25.3 mph (9:53 am)
Weather ElementAverage
Visibility10 mi
Wind DirectionWSW (237.8 °)

Weather ElementTotal
Precipitation---
Heating Degree Days20.5 (Base 65)
Averaged from 23 records on February 9, 2013
WEATHER CONDITIONS BREAKOUT
WIND DIRECTION BREAKOUT
WEATHER BY HOUR - FEBRUARY 9, 2013
[ °C ]   °F
Local TimeTemperatureDewpointHumidityBarometerVisibilityWind DirectionWind SpeedGust SpeedPrecipitationEventsConditions
1:53 AM44.1 °F32.0 °F63 %30.06 in10.0 miNW (320°)11.5 mphClear
2:53 AM42.1 °F30.0 °F62 %30.07 in10.0 miWNW (300°)8.1 mphClear
3:53 AM41.0 °F28.9 °F62 %30.08 in10.0 miNW (320°)9.2 mphClear
4:53 AM39.9 °F28.9 °F65 %30.11 in10.0 miWNW (300°)8.1 mphClear
5:53 AM39.9 °F28.0 °F63 %30.15 in10.0 miWNW (300°)12.7 mphClear
6:53 AM39.0 °F28.0 °F65 %30.18 in10.0 miWNW (300°)10.4 mphClear
7:53 AM39.9 °F28.0 °F63 %30.22 in10.0 miNW (310°)11.5 mphClear
8:53 AM43.0 °F28.0 °F56 %30.25 in10.0 miNNW (330°)15.0 mph20.7 mphClear
9:53 AM46.0 °F26.1 °F46 %30.25 in10.0 miNNW (340°)16.1 mph25.3 mphClear
10:53 AM48.9 °F26.1 °F41 %30.26 in10.0 miNNW (330°)16.1 mph20.7 mphClear
11:53 AM50.0 °F26.1 °F39 %30.25 in10.0 miNorth (350°)10.4 mphClear
12:53 PM53.1 °F26.1 °F35 %30.24 in10.0 miNW (310°)10.4 mph18.4 mphClear
1:53 PM55.0 °F24.1 °F30 %30.24 in10.0 miNNW (330°)11.5 mphClear
2:53 PM55.9 °F21.9 °F27 %30.23 in10.0 miNNW (340°)9.2 mphClear
3:53 PM55.9 °F24.1 °F29 %30.23 in10.0 miNNW (330°)11.5 mphClear
4:53 PM54.0 °F24.1 °F31 %30.25 in10.0 miNW (320°)8.1 mphClear
5:53 PM50.0 °F25.0 °F38 %30.27 in10.0 miNNW (340°)6.9 mphClear
6:53 PM44.1 °F28.9 °F55 %30.28 in10.0 miCalmClear
7:53 PM41.0 °F30.9 °F67 %30.31 in10.0 miCalmClear
8:53 PM37.0 °F30.0 °F76 %30.34 in10.0 miCalmClear
9:53 PM36.0 °F30.9 °F82 %30.35 in10.0 miCalmClear
10:53 PM35.1 °F30.0 °F82 %30.36 in10.0 miCalmClear
11:53 PM33.1 °F28.9 °F85 %30.37 in10.0 miCalmClear
Hourly data recorded from KILM, located miles away from Wilmington, North Carolina







STORIES FROM OUR PARTNERS